| time (UTC) | temp C | wind direction | speed KPH | gust KPH | rain 1hr cm | rain 24hr cm | rain mn cm | humidity % | barometer mb |
| 20260508070436 | 16 | 301 | 4.8 | 0.0 | 0.00 | 0.00 | 0.00 | 78 | 1017.9 |
| 20260508065937 | 16 | 286 | 4.8 | 0.0 | 0.00 | 0.00 | 0.00 | 77 | 1017.9 |
| 20260508065435 | 16 | 3 | 0.0 | 0.0 | 0.00 | 0.00 | 0.00 | 77 | 1017.9 |
| 20260508064836 | 16 | 202 | 0.0 | 0.0 | 0.00 | 0.00 | 0.00 | 77 | 1017.9 |
| 20260508064435 | 16 | 236 | 3.2 | 0.0 | 0.00 | 0.00 | 0.00 | 76 | 1017.9 |
| 20260508063933 | 16 | 192 | 4.8 | 0.0 | 0.00 | 0.00 | 0.00 | 76 | 1017.9 |
| 20260508063437 | 17 | 339 | 8.0 | 0.0 | 0.00 | 0.00 | 0.00 | 76 | 1017.9 |
| 20260508062935 | 17 | 242 | 8.0 | 0.0 | 0.00 | 0.00 | 0.00 | 77 | 1017.9 |
| 20260508062434 | 16 | 264 | 8.0 | 0.0 | 0.00 | 0.00 | 0.00 | 77 | 1017.9 |
| 20260508061933 | 16 | 262 | 0.0 | 0.0 | 0.00 | 0.00 | 0.00 | 75 | 1017.6 |
| 20260508061435 | 16 | 267 | 0.0 | 0.0 | 0.00 | 0.00 | 0.00 | 74 | 1017.9 |
| 20260508060934 | 16 | 319 | 0.0 | 0.0 | 0.00 | 0.00 | 0.00 | 73 | 1017.6 |
| 20260508060434 | 17 | 134 | 0.0 | 0.0 | 0.00 | 0.00 | 0.00 | 73 | 1017.6 |
| 20260508055834 | 17 | 272 | 0.0 | 0.0 | 0.00 | 0.00 | 0.00 | 73 | 1017.6 |
| 20260508055434 | 17 | 279 | 0.0 | 0.0 | 0.00 | 0.00 | 0.00 | 73 | 1017.6 |
| 20260508054935 | 17 | 288 | 0.0 | 0.0 | 0.00 | 0.00 | 0.00 | 72 | 1017.6 |
| 20260508054434 | 17 | 239 | 0.0 | 0.0 | 0.00 | 0.00 | 0.00 | 72 | 1017.6 |
| 20260508053933 | 17 | 219 | 0.0 | 0.0 | 0.00 | 0.00 | 0.00 | 72 | 1017.6 |
| 20260508053431 | 17 | 176 | 0.0 | 0.0 | 0.00 | 0.00 | 0.00 | 71 | 1017.6 |
| 20260508052932 | 17 | 232 | 0.0 | 0.0 | 0.00 | 0.00 | 0.00 | 70 | 1017.6 |
| 20260508052433 | 17 | 280 | 0.0 | 0.0 | 0.00 | 0.00 | 0.00 | 71 | 1017.6 |
| 20260508051843 | 17 | 258 | 0.0 | 0.0 | 0.00 | 0.00 | 0.00 | 70 | 1017.6 |
| 20260508051341 | 17 | 284 | 0.0 | 0.0 | 0.00 | 0.00 | 0.00 | 71 | 1017.6 |
| 20260508050932 | 17 | 271 | 0.0 | 0.0 | 0.00 | 0.00 | 0.00 | 70 | 1017.6 |
| 20260508050337 | 18 | 285 | 0.0 | 0.0 | 0.00 | 0.00 | 0.00 | 69 | 1017.6 |
| 20260508045934 | 18 | 227 | 0.0 | 0.0 | 0.00 | 0.00 | 0.00 | 69 | 1017.6 |
| 20260508045431 | 18 | 256 | 0.0 | 0.0 | 0.00 | 0.00 | 0.00 | 68 | 1017.6 |
| 20260508044931 | 18 | 245 | 0.0 | 0.0 | 0.00 | 0.00 | 0.00 | 68 | 1017.3 |
| 20260508044430 | 18 | 216 | 0.0 | 0.0 | 0.00 | 0.00 | 0.00 | 68 | 1017.3 |
| 20260508043931 | 18 | 312 | 0.0 | 0.0 | 0.00 | 0.00 | 0.00 | 68 | 1017.3 |
| 20260508043431 | 18 | 297 | 0.0 | 0.0 | 0.00 | 0.00 | 0.00 | 66 | 1017.3 |
| 20260508042930 | 19 | 287 | 0.0 | 0.0 | 0.00 | 0.00 | 0.00 | 67 | 1017.3 |
| 20260508042430 | 19 | 317 | 0.0 | 0.0 | 0.00 | 0.00 | 0.00 | 67 | 1017.3 |
| 20260508041836 | 19 | 304 | 0.0 | 0.0 | 0.00 | 0.00 | 0.00 | 64 | 1016.9 |
| 20260508041430 | 19 | 322 | 0.0 | 0.0 | 0.00 | 0.00 | 0.00 | 64 | 1016.9 |
| 20260508040843 | 19 | 306 | 0.0 | 0.0 | 0.00 | 0.00 | 0.00 | 63 | 1016.9 |
| 20260508040432 | 20 | 358 | 0.0 | 0.0 | 0.00 | 0.00 | 0.00 | 61 | 1016.9 |
| 20260508035930 | 20 | 230 | 0.0 | 0.0 | 0.00 | 0.00 | 0.00 | 60 | 1016.6 |
| 20260508035428 | 20 | 303 | 0.0 | 0.0 | 0.00 | 0.00 | 0.00 | 60 | 1016.6 |
| 20260508034930 | 20 | 289 | 0.0 | 0.0 | 0.00 | 0.00 | 0.00 | 60 | 1016.6 |
| 20260508034429 | 20 | 289 | 0.0 | 0.0 | 0.00 | 0.00 | 0.00 | 59 | 1016.6 |
| 20260508033930 | 20 | 299 | 0.0 | 0.0 | 0.00 | 0.00 | 0.00 | 58 | 1016.6 |
| 20260508033429 | 20 | 252 | 6.4 | 0.0 | 0.00 | 0.00 | 0.00 | 58 | 1016.3 |
| 20260508032929 | 21 | 227 | 6.4 | 0.0 | 0.00 | 0.00 | 0.00 | 60 | 1016.3 |
| 20260508032338 | 21 | 242 | 6.4 | 0.0 | 0.00 | 0.00 | 0.00 | 59 | 1016.3 |
| 20260508031829 | 21 | 143 | 4.8 | 0.0 | 0.00 | 0.00 | 0.00 | 57 | 1016.3 |
| 20260508031338 | 21 | 255 | 8.0 | 0.0 | 0.00 | 0.00 | 0.00 | 56 | 1016.3 |
| 20260508030830 | 22 | 131 | 8.0 | 0.0 | 0.00 | 0.00 | 0.00 | 56 | 1016.3 |
| 20260508030341 | 22 | 193 | 3.2 | 0.0 | 0.00 | 0.00 | 0.00 | 54 | 1016.3 |
| 20260508025837 | 22 | 141 | 11.3 | 0.0 | 0.00 | 0.00 | 0.00 | 53 | 1015.9 |
| 20260508025342 | 22 | 134 | 11.3 | 0.0 | 0.00 | 0.00 | 0.00 | 54 | 1015.9 |
| 20260508024836 | 22 | 232 | 11.3 | 0.0 | 0.00 | 0.00 | 0.00 | 54 | 1015.9 |
| 20260508024327 | 23 | 92 | 9.7 | 0.0 | 0.00 | 0.00 | 0.00 | 53 | 1015.6 |
| 20260508023839 | 23 | 38 | 8.0 | 0.0 | 0.00 | 0.00 | 0.00 | 51 | 1015.6 |
| 20260508023336 | 23 | 126 | 11.3 | 0.0 | 0.00 | 0.00 | 0.00 | 51 | 1015.6 |
| 20260508022838 | 24 | 145 | 11.3 | 0.0 | 0.00 | 0.00 | 0.00 | 49 | 1015.2 |
| 20260508022327 | 25 | 68 | 0.0 | 0.0 | 0.00 | 0.00 | 0.00 | 46 | 1015.2 |
| 20260508021826 | 25 | 87 | 0.0 | 0.0 | 0.00 | 0.00 | 0.00 | 42 | 1015.2 |
| 20260508021337 | 25 | 350 | 0.0 | 0.0 | 0.00 | 0.00 | 0.00 | 41 | 1015.2 |
| 20260508020836 | 25 | 315 | 6.4 | 0.0 | 0.00 | 0.00 | 0.00 | 40 | 1015.2 |
| 20260508020343 | 25 | 296 | 9.7 | 0.0 | 0.00 | 0.00 | 0.00 | 39 | 1015.2 |
| 20260508015840 | 26 | 316 | 11.3 | 0.0 | 0.00 | 0.00 | 0.00 | 39 | 1015.2 |
| 20260508015338 | 26 | 314 | 9.7 | 0.0 | 0.00 | 0.00 | 0.00 | 38 | 1015.2 |
| 20260508014843 | 26 | 336 | 11.3 | 0.0 | 0.00 | 0.00 | 0.00 | 38 | 1015.2 |
| 20260508014336 | 26 | 351 | 9.7 | 0.0 | 0.00 | 0.00 | 0.00 | 37 | 1015.2 |
| 20260508013838 | 26 | 314 | 9.7 | 0.0 | 0.00 | 0.00 | 0.00 | 36 | 1015.2 |
| 20260508013338 | 27 | 302 | 9.7 | 0.0 | 0.00 | 0.00 | 0.00 | 36 | 1015.2 |
| 20260508012824 | 27 | 308 | 6.4 | 0.0 | 0.00 | 0.00 | 0.00 | 35 | 1015.2 |
| 20260508012343 | 27 | 289 | 11.3 | 0.0 | 0.00 | 0.00 | 0.00 | 34 | 1015.2 |
| 20260508011840 | 27 | 342 | 8.0 | 0.0 | 0.00 | 0.00 | 0.00 | 34 | 1014.9 |
| 20260508011343 | 28 | 268 | 11.3 | 0.0 | 0.00 | 0.00 | 0.00 | 33 | 1014.9 |
| 20260508010841 | 29 | 292 | 9.7 | 0.0 | 0.00 | 0.00 | 0.00 | 32 | 1014.9 |
| 20260508010338 | 30 | 315 | 9.7 | 0.0 | 0.00 | 0.00 | 0.00 | 31 | 1014.9 |
| 20260508005836 | 30 | 280 | 9.7 | 0.0 | 0.00 | 0.00 | 0.00 | 31 | 1014.9 |
| 20260508005340 | 30 | 320 | 9.7 | 0.0 | 0.00 | 0.00 | 0.00 | 30 | 1014.9 |
| 20260508004837 | 30 | 314 | 11.3 | 0.0 | 0.00 | 0.00 | 0.00 | 30 | 1014.9 |
| 20260508004339 | 30 | 305 | 11.3 | 0.0 | 0.00 | 0.00 | 0.00 | 27 | 1014.9 |
| 20260508003837 | 30 | 277 | 14.5 | 0.0 | 0.00 | 0.00 | 0.00 | 28 | 1014.9 |
| 20260508003341 | 31 | 311 | 12.9 | 0.0 | 0.00 | 0.00 | 0.00 | 28 | 1014.9 |
| 20260508002838 | 31 | 323 | 14.5 | 0.0 | 0.00 | 0.00 | 0.00 | 28 | 1014.6 |
| 20260508002338 | 31 | 6 | 14.5 | 0.0 | 0.00 | 0.00 | 0.00 | 27 | 1014.9 |
| 20260508001838 | 31 | 287 | 14.5 | 0.0 | 0.00 | 0.00 | 0.00 | 27 | 1014.6 |
| 20260508001343 | 31 | 285 | 12.9 | 0.0 | 0.00 | 0.00 | 0.00 | 27 | 1014.6 |
| 20260508000840 | 31 | 304 | 16.1 | 0.0 | 0.00 | 0.00 | 0.00 | 27 | 1014.6 |
| 20260508000342 | 31 | 314 | 12.9 | 0.0 | 0.00 | 0.00 | 0.00 | 27 | 1014.6 |
| 20260507235839 | 31 | 303 | 16.1 | 0.0 | 0.00 | 0.00 | 0.00 | 27 | 1014.6 |
| 20260507235339 | 31 | 331 | 17.7 | 0.0 | 0.00 | 0.00 | 0.00 | 27 | 1014.6 |
| 20260507234836 | 31 | 312 | 16.1 | 0.0 | 0.00 | 0.00 | 0.00 | 27 | 1014.6 |
| 20260507234342 | 31 | 328 | 20.9 | 0.0 | 0.00 | 0.00 | 0.00 | 27 | 1014.6 |
| 20260507233841 | 31 | 287 | 20.9 | 0.0 | 0.00 | 0.00 | 0.00 | 27 | 1014.6 |
| 20260507233338 | 32 | 285 | 16.1 | 0.0 | 0.00 | 0.00 | 0.00 | 26 | 1014.6 |
| 20260507232835 | 32 | 292 | 12.9 | 0.0 | 0.00 | 0.00 | 0.00 | 27 | 1014.6 |
| 20260507232338 | 32 | 12 | 20.9 | 0.0 | 0.00 | 0.00 | 0.00 | 26 | 1014.6 |
| 20260507231840 | 32 | 331 | 20.9 | 0.0 | 0.00 | 0.00 | 0.00 | 26 | 1014.2 |
| 20260507231335 | 31 | 334 | 20.9 | 0.0 | 0.00 | 0.00 | 0.00 | 26 | 1014.6 |
| 20260507230842 | 32 | 294 | 20.9 | 0.0 | 0.00 | 0.00 | 0.00 | 26 | 1014.6 |
| 20260507230339 | 31 | 313 | 22.5 | 0.0 | 0.00 | 0.00 | 0.00 | 27 | 1014.2 |
| 20260507225838 | 32 | 315 | 20.9 | 0.0 | 0.00 | 0.00 | 0.00 | 25 | 1014.2 |
| 20260507225337 | 32 | 308 | 20.9 | 0.0 | 0.00 | 0.00 | 0.00 | 26 | 1014.6 |
| 20260507224839 | 32 | 312 | 20.9 | 0.0 | 0.00 | 0.00 | 0.00 | 26 | 1014.6 |
| 20260507224341 | 31 | 314 | 24.1 | 0.0 | 0.00 | 0.00 | 0.00 | 26 | 1014.6 |
| 20260507223839 | 32 | 334 | 24.1 | 0.0 | 0.00 | 0.00 | 0.00 | 26 | 1014.6 |
| 20260507223342 | 32 | 306 | 22.5 | 0.0 | 0.00 | 0.00 | 0.00 | 28 | 1014.6 |
| 20260507222838 | 32 | 359 | 22.5 | 0.0 | 0.00 | 0.00 | 0.00 | 29 | 1014.6 |
| 20260507222339 | 32 | 324 | 14.5 | 0.0 | 0.00 | 0.00 | 0.00 | 27 | 1014.6 |
| 20260507221839 | 32 | 304 | 17.7 | 0.0 | 0.00 | 0.00 | 0.00 | 28 | 1014.6 |
| 20260507221342 | 32 | 310 | 20.9 | 0.0 | 0.00 | 0.00 | 0.00 | 28 | 1014.6 |
| 20260507220843 | 32 | 303 | 22.5 | 0.0 | 0.00 | 0.00 | 0.00 | 28 | 1014.6 |
| 20260507220340 | 32 | 1 | 24.1 | 0.0 | 0.00 | 0.00 | 0.00 | 27 | 1014.6 |
| 20260507215837 | 32 | 135 | 20.9 | 0.0 | 0.00 | 0.00 | 0.00 | 27 | 1014.9 |
| 20260507215339 | 33 | 254 | 17.7 | 0.0 | 0.00 | 0.00 | 0.00 | 27 | 1014.9 |
| 20260507214841 | 33 | 285 | 12.9 | 0.0 | 0.00 | 0.00 | 0.00 | 27 | 1014.9 |
| 20260507214341 | 32 | 295 | 17.7 | 0.0 | 0.00 | 0.00 | 0.00 | 27 | 1014.9 |
| 20260507213837 | 32 | 329 | 25.7 | 0.0 | 0.00 | 0.00 | 0.00 | 27 | 1014.9 |
| 20260507213341 | 32 | 322 | 25.7 | 0.0 | 0.00 | 0.00 | 0.00 | 27 | 1014.9 |
| 20260507212843 | 33 | 281 | 19.3 | 0.0 | 0.00 | 0.00 | 0.00 | 28 | 1015.2 |
| 20260507212340 | 33 | 303 | 19.3 | 0.0 | 0.00 | 0.00 | 0.00 | 28 | 1015.2 |
| 20260507211835 | 32 | 296 | 16.1 | 0.0 | 0.00 | 0.00 | 0.00 | 28 | 1015.2 |
| 20260507211340 | 32 | 345 | 20.9 | 0.0 | 0.00 | 0.00 | 0.00 | 28 | 1015.2 |
| 20260507210841 | 32 | 5 | 24.1 | 0.0 | 0.00 | 0.00 | 0.00 | 29 | 1015.2 |
| 20260507210344 | 32 | 337 | 19.3 | 0.0 | 0.00 | 0.00 | 0.00 | 29 | 1015.2 |
| 20260507205841 | 32 | 352 | 16.1 | 0.0 | 0.00 | 0.00 | 0.00 | 27 | 1015.2 |
| 20260507205341 | 32 | 248 | 20.9 | 0.0 | 0.00 | 0.00 | 0.00 | 29 | 1015.2 |
| 20260507204839 | 33 | 322 | 20.9 | 0.0 | 0.00 | 0.00 | 0.00 | 28 | 1015.6 |
| 20260507204341 | 33 | 320 | 14.5 | 0.0 | 0.00 | 0.00 | 0.00 | 27 | 1015.6 |
| 20260507203840 | 32 | 358 | 22.5 | 0.0 | 0.00 | 0.00 | 0.00 | 29 | 1015.6 |
| 20260507203338 | 32 | 334 | 22.5 | 0.0 | 0.00 | 0.00 | 0.00 | 27 | 1015.6 |
| 20260507202842 | 33 | 251 | 14.5 | 0.0 | 0.00 | 0.00 | 0.00 | 27 | 1015.6 |
| 20260507202344 | 33 | 3 | 11.3 | 0.0 | 0.00 | 0.00 | 0.00 | 25 | 1015.6 |
| 20260507201839 | 33 | 312 | 14.5 | 0.0 | 0.00 | 0.00 | 0.00 | 27 | 1015.6 |
| 20260507201341 | 32 | 332 | 16.1 | 0.0 | 0.00 | 0.00 | 0.00 | 26 | 1015.6 |
| 20260507200836 | 33 | 350 | 14.5 | 0.0 | 0.00 | 0.00 | 0.00 | 25 | 1015.6 |
| 20260507200342 | 33 | 151 | 17.7 | 0.0 | 0.00 | 0.00 | 0.00 | 26 | 1015.9 |
| 20260507195838 | 32 | 337 | 17.7 | 0.0 | 0.00 | 0.00 | 0.00 | 26 | 1015.9 |
| 20260507195342 | 32 | 1 | 14.5 | 0.0 | 0.00 | 0.00 | 0.00 | 25 | 1015.9 |
| 20260507194839 | 32 | 272 | 16.1 | 0.0 | 0.00 | 0.00 | 0.00 | 25 | 1016.3 |
| 20260507194342 | 32 | 12 | 16.1 | 0.0 | 0.00 | 0.00 | 0.00 | 26 | 1016.3 |
| 20260507193844 | 32 | 72 | 9.7 | 0.0 | 0.00 | 0.00 | 0.00 | 27 | 1016.3 |
| 20260507193341 | 31 | 243 | 9.7 | 0.0 | 0.00 | 0.00 | 0.00 | 29 | 1016.3 |
| 20260507192841 | 31 | 73 | 9.7 | 0.0 | 0.00 | 0.00 | 0.00 | 30 | 1016.3 |
| 20260507192342 | 31 | 132 | 9.7 | 0.0 | 0.00 | 0.00 | 0.00 | 31 | 1016.3 |
| 20260507191841 | 30 | 66 | 11.3 | 0.0 | 0.00 | 0.00 | 0.00 | 32 | 1016.6 |
| 20260507191339 | 30 | 82 | 9.7 | 0.0 | 0.00 | 0.00 | 0.00 | 33 | 1016.6 |
| 20260507190839 | 31 | 34 | 11.3 | 0.0 | 0.00 | 0.00 | 0.00 | 32 | 1016.6 |
| 20260507190335 | 31 | 50 | 9.7 | 0.0 | 0.00 | 0.00 | 0.00 | 32 | 1016.6 |
| 20260507185840 | 31 | 99 | 9.7 | 0.0 | 0.00 | 0.00 | 0.00 | 32 | 1016.9 |
| 20260507185338 | 31 | 265 | 9.7 | 0.0 | 0.00 | 0.00 | 0.00 | 33 | 1016.9 |
| 20260507184841 | 30 | 316 | 8.0 | 0.0 | 0.00 | 0.00 | 0.00 | 33 | 1016.9 |
| 20260507184344 | 30 | 343 | 9.7 | 0.0 | 0.00 | 0.00 | 0.00 | 34 | 1016.9 |
| 20260507183843 | 30 | 305 | 9.7 | 0.0 | 0.00 | 0.00 | 0.00 | 34 | 1016.9 |
| 20260507183339 | 29 | 43 | 11.3 | 0.0 | 0.00 | 0.00 | 0.00 | 35 | 1017.3 |
| 20260507182837 | 29 | 95 | 11.3 | 0.0 | 0.00 | 0.00 | 0.00 | 36 | 1017.3 |
| 20260507182341 | 28 | 104 | 9.7 | 0.0 | 0.00 | 0.00 | 0.00 | 37 | 1017.3 |
| 20260507181942 | 29 | 144 | 9.7 | 0.0 | 0.00 | 0.00 | 0.00 | 36 | 1017.3 |
| 20260507181612 | 28 | 127 | 9.7 | 0.0 | 0.00 | 0.00 | 0.00 | 36 | 1017.3 |
| 20260507180811 | 28 | 159 | 9.7 | 0.0 | 0.00 | 0.00 | 0.00 | 38 | 1017.3 |
| 20260507180338 | 28 | 153 | 9.7 | 0.0 | 0.00 | 0.00 | 0.00 | 40 | 1017.3 |
| 20260507175844 | 28 | 84 | 9.7 | 0.0 | 0.00 | 0.00 | 0.00 | 40 | 1017.6 |
| 20260507175336 | 28 | 225 | 8.0 | 0.0 | 0.00 | 0.00 | 0.00 | 40 | 1017.6 |
| 20260507174840 | 27 | 43 | 6.4 | 0.0 | 0.00 | 0.00 | 0.00 | 41 | 1017.6 |
| 20260507174339 | 27 | 130 | 6.4 | 0.0 | 0.00 | 0.00 | 0.00 | 42 | 1017.6 |
| 20260507173843 | 27 | 185 | 4.8 | 0.0 | 0.00 | 0.00 | 0.00 | 43 | 1017.6 |
| 20260507173336 | 26 | 41 | 9.7 | 0.0 | 0.00 | 0.00 | 0.00 | 43 | 1017.6 |
| 20260507172844 | 26 | 100 | 6.4 | 0.0 | 0.00 | 0.00 | 0.00 | 43 | 1017.6 |
| 20260507172325 | 26 | 122 | 6.4 | 0.0 | 0.00 | 0.00 | 0.00 | 45 | 1017.6 |
| 20260507171825 | 26 | 81 | 6.4 | 0.0 | 0.00 | 0.00 | 0.00 | 45 | 1017.6 |
| 20260507171325 | 26 | 125 | 6.4 | 0.0 | 0.00 | 0.00 | 0.00 | 44 | 1017.6 |
| 20260507170825 | 26 | 252 | 4.8 | 0.0 | 0.00 | 0.00 | 0.00 | 44 | 1017.9 |
| 20260507170327 | 26 | 238 | 6.4 | 0.0 | 0.00 | 0.00 | 0.00 | 46 | 1017.9 |
| 20260507165839 | 25 | 311 | 6.4 | 0.0 | 0.00 | 0.00 | 0.00 | 47 | 1017.9 |
| 20260507165323 | 25 | 79 | 6.4 | 0.0 | 0.00 | 0.00 | 0.00 | 47 | 1017.9 |
| 20260507164838 | 25 | 122 | 6.4 | 0.0 | 0.00 | 0.00 | 0.00 | 47 | 1017.9 |
| 20260507164339 | 25 | 321 | 6.4 | 0.0 | 0.00 | 0.00 | 0.00 | 47 | 1017.9 |
| 20260507163836 | 25 | 106 | 4.8 | 0.0 | 0.00 | 0.00 | 0.00 | 47 | 1017.9 |
| 20260507163337 | 24 | 251 | 6.4 | 0.0 | 0.00 | 0.00 | 0.00 | 49 | 1018.3 |
| 20260507162838 | 23 | 288 | 6.4 | 0.0 | 0.00 | 0.00 | 0.00 | 51 | 1018.3 |
| 20260507162338 | 23 | 71 | 6.4 | 0.0 | 0.00 | 0.00 | 0.00 | 51 | 1018.3 |
| 20260507161837 | 23 | 66 | 6.4 | 0.0 | 0.00 | 0.00 | 0.00 | 52 | 1018.3 |
| 20260507161338 | 22 | 134 | 6.4 | 0.0 | 0.00 | 0.00 | 0.00 | 52 | 1018.3 |
| 20260507160841 | 22 | 117 | 4.8 | 0.0 | 0.00 | 0.00 | 0.00 | 54 | 1018.3 |
| 20260507160338 | 22 | 119 | 8.0 | 0.0 | 0.00 | 0.00 | 0.00 | 55 | 1018.3 |
| 20260507155841 | 21 | 215 | 8.0 | 0.0 | 0.00 | 0.00 | 0.00 | 57 | 1018.3 |
| 20260507155340 | 21 | 46 | 8.0 | 0.0 | 0.00 | 0.00 | 0.00 | 57 | 1018.3 |
| 20260507154841 | 21 | 299 | 6.4 | 0.0 | 0.00 | 0.00 | 0.00 | 57 | 1018.3 |
| 20260507154340 | 21 | 354 | 0.0 | 0.0 | 0.00 | 0.00 | 0.00 | 56 | 1018.3 |
| 20260507153822 | 21 | 38 | 0.0 | 0.0 | 0.00 | 0.00 | 0.00 | 57 | 1018.3 |
| 20260507153342 | 20 | 138 | 0.0 | 0.0 | 0.00 | 0.00 | 0.00 | 59 | 1018.3 |
| 20260507152841 | 20 | 186 | 0.0 | 0.0 | 0.00 | 0.00 | 0.00 | 60 | 1018.3 |
| 20260507152342 | 20 | 13 | 0.0 | 0.0 | 0.00 | 0.00 | 0.00 | 60 | 1018.3 |
| 20260507151837 | 20 | 152 | 0.0 | 0.0 | 0.00 | 0.00 | 0.00 | 62 | 1018.3 |
| 20260507151340 | 19 | 102 | 0.0 | 0.0 | 0.00 | 0.00 | 0.00 | 63 | 1018.3 |
| 20260507150841 | 19 | 109 | 0.0 | 0.0 | 0.00 | 0.00 | 0.00 | 64 | 1018.3 |
| 20260507150336 | 18 | 349 | 0.0 | 0.0 | 0.00 | 0.00 | 0.00 | 65 | 1018.3 |
| 20260507145843 | 18 | 50 | 0.0 | 0.0 | 0.00 | 0.00 | 0.00 | 65 | 1018.3 |
| 20260507145341 | 18 | 68 | 0.0 | 0.0 | 0.00 | 0.00 | 0.00 | 67 | 1018.3 |
| 20260507144841 | 17 | 157 | 0.0 | 0.0 | 0.00 | 0.00 | 0.00 | 68 | 1018.3 |
| 20260507144318 | 17 | 53 | 0.0 | 0.0 | 0.00 | 0.00 | 0.00 | 70 | 1018.3 |
| 20260507143837 | 16 | 74 | 0.0 | 0.0 | 0.00 | 0.00 | 0.00 | 73 | 1018.3 |
| 20260507143342 | 16 | 41 | 0.0 | 0.0 | 0.00 | 0.00 | 0.00 | 73 | 1018.3 |
| 20260507142838 | 16 | 354 | 0.0 | 0.0 | 0.00 | 0.00 | 0.00 | 75 | 1018.3 |
| 20260507142336 | 15 | 348 | 0.0 | 0.0 | 0.00 | 0.00 | 0.00 | 76 | 1018.3 |
| 20260507141837 | 15 | 311 | 0.0 | 0.0 | 0.00 | 0.00 | 0.00 | 78 | 1018.3 |
| 20260507141337 | 15 | 331 | 0.0 | 0.0 | 0.00 | 0.00 | 0.00 | 79 | 1018.3 |
| 20260507140841 | 14 | 51 | 0.0 | 0.0 | 0.00 | 0.00 | 0.00 | 81 | 1018.3 |
| 20260507140338 | 13 | 350 | 0.0 | 0.0 | 0.00 | 0.00 | 0.00 | 82 | 1018.3 |
| 20260507135841 | 13 | 315 | 0.0 | 0.0 | 0.00 | 0.00 | 0.00 | 84 | 1018.3 |
| 20260507135341 | 13 | 342 | 0.0 | 0.0 | 0.00 | 0.00 | 0.00 | 87 | 1018.3 |
| 20260507134819 | 13 | 356 | 0.0 | 0.0 | 0.00 | 0.00 | 0.00 | 88 | 1018.3 |
| 20260507134343 | 12 | 334 | 0.0 | 0.0 | 0.00 | 0.00 | 0.00 | 89 | 1018.3 |
| 20260507133842 | 11 | 309 | 0.0 | 0.0 | 0.00 | 0.00 | 0.00 | 90 | 1018.3 |
| 20260507133341 | 11 | 152 | 0.0 | 0.0 | 0.00 | 0.00 | 0.00 | 89 | 1018.3 |
| 20260507132837 | 10 | 294 | 0.0 | 0.0 | 0.00 | 0.00 | 0.00 | 89 | 1017.9 |
| 20260507132337 | 10 | 294 | 0.0 | 0.0 | 0.00 | 0.00 | 0.00 | 89 | 1018.3 |
| 20260507131838 | 10 | 288 | 0.0 | 0.0 | 0.00 | 0.00 | 0.00 | 89 | 1017.9 |
| 20260507131337 | 10 | 232 | 0.0 | 0.0 | 0.00 | 0.00 | 0.00 | 89 | 1017.9 |
| 20260507130841 | 10 | 278 | 0.0 | 0.0 | 0.00 | 0.00 | 0.00 | 89 | 1017.9 |
| 20260507130336 | 10 | 293 | 0.0 | 0.0 | 0.00 | 0.00 | 0.00 | 89 | 1017.9 |
| 20260507125839 | 10 | 288 | 0.0 | 0.0 | 0.00 | 0.00 | 0.00 | 89 | 1017.6 |
| 20260507125315 | 10 | 270 | 0.0 | 0.0 | 0.00 | 0.00 | 0.00 | 88 | 1017.6 |
| 20260507124842 | 10 | 284 | 0.0 | 0.0 | 0.00 | 0.00 | 0.00 | 88 | 1017.6 |
| 20260507124342 | 10 | 296 | 0.0 | 0.0 | 0.00 | 0.00 | 0.00 | 88 | 1017.6 |
| 20260507123837 | 10 | 290 | 0.0 | 0.0 | 0.00 | 0.00 | 0.00 | 87 | 1017.6 |
| 20260507123314 | 10 | 190 | 0.0 | 0.0 | 0.00 | 0.00 | 0.00 | 87 | 1017.6 |
| 20260507122838 | 10 | 295 | 0.0 | 0.0 | 0.00 | 0.00 | 0.00 | 87 | 1017.6 |
| 20260507122342 | 10 | 303 | 0.0 | 0.0 | 0.00 | 0.00 | 0.00 | 87 | 1017.6 |
| 20260507121841 | 11 | 298 | 0.0 | 0.0 | 0.00 | 0.00 | 0.00 | 88 | 1017.6 |
| 20260507121335 | 11 | 325 | 0.0 | 0.0 | 0.00 | 0.00 | 0.00 | 88 | 1017.6 |
| 20260507120840 | 11 | 291 | 0.0 | 0.0 | 0.00 | 0.00 | 0.00 | 88 | 1017.6 |
| 20260507120335 | 11 | 304 | 0.0 | 0.0 | 0.00 | 0.00 | 0.00 | 88 | 1017.6 |
| 20260507115813 | 11 | 301 | 0.0 | 0.0 | 0.00 | 0.00 | 0.00 | 88 | 1017.6 |
| 20260507115338 | 11 | 282 | 0.0 | 0.0 | 0.00 | 0.00 | 0.00 | 88 | 1017.9 |
| 20260507114842 | 11 | 285 | 0.0 | 0.0 | 0.00 | 0.00 | 0.00 | 88 | 1017.9 |
| 20260507114341 | 11 | 224 | 0.0 | 0.0 | 0.00 | 0.00 | 0.00 | 88 | 1017.9 |
| 20260507113840 | 11 | 171 | 0.0 | 0.0 | 0.00 | 0.00 | 0.00 | 88 | 1017.9 |
| 20260507113344 | 11 | 200 | 0.0 | 0.0 | 0.00 | 0.00 | 0.00 | 87 | 1017.9 |
| 20260507112838 | 11 | 201 | 0.0 | 0.0 | 0.00 | 0.00 | 0.00 | 86 | 1017.9 |
| 20260507112343 | 11 | 175 | 0.0 | 0.0 | 0.00 | 0.00 | 0.00 | 86 | 1018.3 |
| 20260507111840 | 11 | 207 | 0.0 | 0.0 | 0.00 | 0.00 | 0.00 | 86 | 1018.3 |
| 20260507111344 | 11 | 305 | 0.0 | 0.0 | 0.00 | 0.00 | 0.00 | 86 | 1017.9 |
| 20260507110837 | 11 | 247 | 0.0 | 0.0 | 0.00 | 0.00 | 0.00 | 86 | 1018.3 |
| 20260507110341 | 11 | 188 | 0.0 | 0.0 | 0.00 | 0.00 | 0.00 | 86 | 1018.3 |
| 20260507105841 | 11 | 273 | 0.0 | 0.0 | 0.00 | 0.00 | 0.00 | 86 | 1018.3 |
| 20260507105339 | 11 | 311 | 0.0 | 0.0 | 0.00 | 0.00 | 0.00 | 86 | 1018.3 |
| 20260507104837 | 11 | 265 | 0.0 | 0.0 | 0.00 | 0.00 | 0.00 | 84 | 1018.3 |
| 20260507104336 | 11 | 296 | 0.0 | 0.0 | 0.00 | 0.00 | 0.00 | 84 | 1018.3 |
| 20260507103836 | 11 | 279 | 0.0 | 0.0 | 0.00 | 0.00 | 0.00 | 84 | 1018.3 |
| 20260507103340 | 11 | 286 | 0.0 | 0.0 | 0.00 | 0.00 | 0.00 | 84 | 1018.3 |
| 20260507102839 | 11 | 282 | 0.0 | 0.0 | 0.00 | 0.00 | 0.00 | 83 | 1018.3 |
| 20260507102337 | 11 | 301 | 0.0 | 0.0 | 0.00 | 0.00 | 0.00 | 83 | 1018.3 |
| 20260507101835 | 11 | 211 | 0.0 | 0.0 | 0.00 | 0.00 | 0.00 | 83 | 1018.3 |
| 20260507101335 | 11 | 296 | 0.0 | 0.0 | 0.00 | 0.00 | 0.00 | 83 | 1018.3 |
| 20260507100841 | 12 | 231 | 0.0 | 0.0 | 0.00 | 0.00 | 0.00 | 83 | 1018.3 |
| 20260507100341 | 12 | 295 | 0.0 | 0.0 | 0.00 | 0.00 | 0.00 | 84 | 1018.3 |
| 20260507095840 | 12 | 307 | 0.0 | 0.0 | 0.00 | 0.00 | 0.00 | 83 | 1018.3 |
| 20260507095337 | 12 | 257 | 0.0 | 0.0 | 0.00 | 0.00 | 0.00 | 83 | 1018.6 |
| 20260507094837 | 12 | 295 | 0.0 | 0.0 | 0.00 | 0.00 | 0.00 | 83 | 1018.6 |
| 20260507094342 | 12 | 272 | 0.0 | 0.0 | 0.00 | 0.00 | 0.00 | 83 | 1018.6 |
| 20260507093840 | 12 | 300 | 0.0 | 0.0 | 0.00 | 0.00 | 0.00 | 83 | 1018.6 |
| 20260507093336 | 11 | 283 | 0.0 | 0.0 | 0.00 | 0.00 | 0.00 | 82 | 1018.6 |
| 20260507092839 | 12 | 322 | 0.0 | 0.0 | 0.00 | 0.00 | 0.00 | 82 | 1018.6 |
| 20260507092337 | 12 | 289 | 0.0 | 0.0 | 0.00 | 0.00 | 0.00 | 82 | 1018.6 |
| 20260507091840 | 12 | 316 | 0.0 | 0.0 | 0.00 | 0.00 | 0.00 | 81 | 1018.6 |
| 20260507091314 | 12 | 299 | 0.0 | 0.0 | 0.00 | 0.00 | 0.00 | 81 | 1018.6 |
| 20260507090838 | 12 | 326 | 0.0 | 0.0 | 0.00 | 0.00 | 0.00 | 80 | 1018.6 |
| 20260507090338 | 12 | 302 | 0.0 | 0.0 | 0.00 | 0.00 | 0.00 | 79 | 1018.6 |
| 20260507085838 | 12 | 338 | 0.0 | 0.0 | 0.00 | 0.00 | 0.00 | 78 | 1019.0 |
| 20260507085341 | 13 | 310 | 0.0 | 0.0 | 0.00 | 0.00 | 0.00 | 78 | 1019.0 |
| 20260507084836 | 13 | 284 | 0.0 | 0.0 | 0.00 | 0.00 | 0.00 | 77 | 1019.0 |
| 20260507084315 | 13 | 301 | 0.0 | 0.0 | 0.00 | 0.00 | 0.00 | 76 | 1019.0 |
| 20260507083841 | 14 | 308 | 0.0 | 0.0 | 0.00 | 0.00 | 0.00 | 75 | 1019.0 |
| 20260507083340 | 14 | 270 | 0.0 | 0.0 | 0.00 | 0.00 | 0.00 | 76 | 1019.0 |
| 20260507082813 | 14 | 276 | 0.0 | 0.0 | 0.00 | 0.00 | 0.00 | 77 | 1019.0 |
| 20260507082336 | 14 | 253 | 0.0 | 0.0 | 0.00 | 0.00 | 0.00 | 77 | 1019.0 |
| 20260507081840 | 13 | 256 | 0.0 | 0.0 | 0.00 | 0.00 | 0.00 | 78 | 1019.3 |
| 20260507081338 | 13 | 271 | 0.0 | 0.0 | 0.00 | 0.00 | 0.00 | 78 | 1019.0 |
| 20260507080838 | 13 | 254 | 4.8 | 0.0 | 0.00 | 0.00 | 0.00 | 79 | 1019.3 |
| 20260507080340 | 13 | 263 | 0.0 | 0.0 | 0.00 | 0.00 | 0.00 | 81 | 1019.0 |
| 20260507075816 | 13 | 273 | 0.0 | 0.0 | 0.00 | 0.00 | 0.00 | 80 | 1019.0 |
| 20260507075338 | 13 | 310 | 0.0 | 0.0 | 0.00 | 0.00 | 0.00 | 78 | 1019.0 |
| 20260507074839 | 13 | 303 | 0.0 | 0.0 | 0.00 | 0.00 | 0.00 | 78 | 1019.0 |
| 20260507074313 | 13 | 313 | 0.0 | 0.0 | 0.00 | 0.00 | 0.00 | 78 | 1019.0 |
| 20260507073841 | 13 | 275 | 0.0 | 0.0 | 0.00 | 0.00 | 0.00 | 79 | 1019.0 |
| 20260507073314 | 13 | 287 | 0.0 | 0.0 | 0.00 | 0.00 | 0.00 | 78 | 1019.0 |
| 20260507072842 | 13 | 264 | 0.0 | 0.0 | 0.00 | 0.00 | 0.00 | 78 | 1019.3 |
| 20260507072338 | 13 | 298 | 0.0 | 0.0 | 0.00 | 0.00 | 0.00 | 77 | 1019.3 |
| 20260507071837 | 13 | 290 | 0.0 | 0.0 | 0.00 | 0.00 | 0.00 | 76 | 1019.3 |
| 20260507071338 | 13 | 274 | 0.0 | 0.0 | 0.00 | 0.00 | 0.00 | 76 | 1019.3 |
| 20260507070814 | 13 | 303 | 0.0 | 0.0 | 0.00 | 0.00 | 0.00 | 75 | 1019.3 |